Hourly Weather Luganskoe

Today, 20 June, Sunday

Time Temperature Precipitation Wind Pressure Humidity
00:00 +18°C° 0 mm 1 mps 748 mmHg 70%
01:00 +16°C° 0 mm 1 mps 748 mmHg 71%
02:00 +16°C° 0 mm 1 mps 748 mmHg 72%
03:00 +16°C° 0 mm 1 mps 748 mmHg 72%
04:00 +18°C° 0 mm 1 mps 748 mmHg 72%
05:00 +18°C° 0 mm 1 mps 748 mmHg 71%
06:00 +19°C° 0 mm 1 mps 748 mmHg 71%
07:00 +19°C° 0 mm 2 mps 748 mmHg 67%
08:00 +21°C° 0 mm 2 mps 748 mmHg 63%
09:00 +23°C° 0 mm 2 mps 748 mmHg 60%
10:00 +24°C° 0 mm 2 mps 748 mmHg 57%
11:00 +25°C° 0 mm 2 mps 748 mmHg 54%
12:00 +26°C° 0 mm 2 mps 747 mmHg 51%
13:00 +26°C° 0 mm 2 mps 747 mmHg 49%
14:00 +27°C° 0 mm 2 mps 747 mmHg 48%
15:00 +27°C° 0 mm 2 mps 747 mmHg 46%
16:00 +27°C° 0 mm 2 mps 747 mmHg 50%
17:00 +27°C° 0 mm 2 mps 746 mmHg 54%
18:00 +27°C° 0 mm 2 mps 746 mmHg 57%
19:00 +25°C° 0 mm 2 mps 746 mmHg 58%
20:00 +24°C° 0 mm 2 mps 746 mmHg 59%
21:00 +21°C° 0 mm 2 mps 746 mmHg 60%
22:00 +21°C° 0 mm 2 mps 746 mmHg 62%
23:00 +20°C° 0 mm 2 mps 746 mmHg 64%

Tomorrow, 21 June, Monday

Time Temperature Precipitation Wind Pressure Humidity
00:00 +20°C° 0 mm 2 mps 746 mmHg 65%
01:00 +19°C° 0 mm 2 mps 746 mmHg 69%
02:00 +19°C° 0 mm 2 mps 746 mmHg 72%
03:00 +18°C° 0 mm 2 mps 746 mmHg 75%
04:00 +19°C° 0 mm 2 mps 746 mmHg 75%
05:00 +21°C° 0 mm 1 mps 746 mmHg 75%
06:00 +21°C° 0 mm 1 mps 747 mmHg 75%
07:00 +23°C° 0 mm 2 mps 747 mmHg 72%
08:00 +24°C° 0 mm 2 mps 747 mmHg 68%
09:00 +25°C° 0 mm 2 mps 747 mmHg 64%
10:00 +26°C° 0 mm 2 mps 747 mmHg 61%
11:00 +27°C° 0 mm 2 mps 747 mmHg 58%
12:00 +28°C° 0 mm 2 mps 747 mmHg 54%
13:00 +28°C° 0 mm 2 mps 747 mmHg 52%
14:00 +29°C° 0 mm 2 mps 747 mmHg 49%
15:00 +30°C° 0 mm 2 mps 746 mmHg 46%
16:00 +29°C° 0 mm 2 mps 746 mmHg 51%
17:00 +29°C° 0 mm 2 mps 746 mmHg 56%
18:00 +28°C° 0 mm 2 mps 746 mmHg 60%
19:00 +27°C° 0 mm 2 mps 746 mmHg 63%
20:00 +25°C° 0 mm 2 mps 746 mmHg 66%
21:00 +24°C° 0 mm 2 mps 746 mmHg 69%
22:00 +23°C° 0 mm 2 mps 746 mmHg 71%
23:00 +21°C° 0 mm 2 mps 746 mmHg 73%

Day after tomorrow, 22 June, Tuesday

Time Temperature Precipitation Wind Pressure Humidity
00:00 +21°C° 0 mm 2 mps 746 mmHg 75%
01:00 +21°C° 0 mm 2 mps 746 mmHg 77%
02:00 +20°C° 0 mm 2 mps 746 mmHg 79%
03:00 +20°C° 0 mm 2 mps 746 mmHg 81%
04:00 +20°C° 0 mm 3 mps 746 mmHg 81%
05:00 +21°C° 0 mm 3 mps 746 mmHg 80%
06:00 +21°C° 0 mm 3 mps 746 mmHg 79%
07:00 +24°C° 0 mm 3 mps 746 mmHg 74%
08:00 +25°C° 0 mm 3 mps 746 mmHg 68%
09:00 +26°C° 0 mm 4 mps 746 mmHg 63%
10:00 +27°C° 0 mm 3 mps 746 mmHg 57%
11:00 +29°C° 0 mm 3 mps 746 mmHg 50%
12:00 +30°C° 0 mm 3 mps 747 mmHg 44%
13:00 +30°C° 0 mm 3 mps 746 mmHg 42%
14:00 +31°C° 0 mm 2 mps 746 mmHg 41%
15:00 +31°C° 0 mm 2 mps 746 mmHg 39%
16:00 +31°C° 0 mm 2 mps 746 mmHg 44%
17:00 +30°C° 0 mm 2 mps 745 mmHg 49%
18:00 +30°C° 0 mm 3 mps 745 mmHg 54%
19:00 +28°C° 0 mm 3 mps 745 mmHg 58%
20:00 +27°C° 0 mm 2 mps 745 mmHg 61%
21:00 +25°C° 0 mm 2 mps 745 mmHg 65%
22:00 +25°C° 0 mm 2 mps 745 mmHg 64%
23:00 +24°C° 0 mm 2 mps 745 mmHg 64%

23 June, Wednesday

Time Temperature Precipitation Wind Pressure Humidity
00:00 +24°C° 0 mm 2 mps 745 mmHg 63%
01:00 +23°C° 0 mm 2 mps 745 mmHg 63%
02:00 +23°C° 0 mm 2 mps 745 mmHg 62%
03:00 +21°C° 0 mm 2 mps 746 mmHg 62%
04:00 +23°C° 0 mm 2 mps 746 mmHg 64%
05:00 +23°C° 0 mm 2 mps 746 mmHg 65%
06:00 +23°C° 0 mm 2 mps 746 mmHg 67%
07:00 +25°C° 0 mm 2 mps 746 mmHg 62%
08:00 +26°C° 0 mm 3 mps 746 mmHg 58%
09:00 +27°C° 0 mm 3 mps 746 mmHg 53%
10:00 +28°C° 0 mm 3 mps 746 mmHg 50%
11:00 +30°C° 0 mm 4 mps 746 mmHg 46%
12:00 +32°C° 0 mm 4 mps 746 mmHg 42%
13:00 +31°C° 0 mm 3 mps 746 mmHg 41%
14:00 +33°C° 0 mm 3 mps 746 mmHg 40%
15:00 +33°C° 0 mm 3 mps 746 mmHg 39%
16:00 +32°C° 0 mm 2 mps 746 mmHg 43%
17:00 +31°C° 0 mm 2 mps 745 mmHg 48%
18:00 +31°C° 0 mm 1 mps 745 mmHg 53%
19:00 +29°C° 0 mm 1 mps 745 mmHg 54%
20:00 +28°C° 0 mm 1 mps 745 mmHg 56%
21:00 +26°C° 0 mm 1 mps 745 mmHg 58%
22:00 +26°C° 0 mm 1 mps 745 mmHg 59%
23:00 +25°C° 0 mm 1 mps 745 mmHg 60%

24 June, Thursday

Time Temperature Precipitation Wind Pressure Humidity
00:00 +25°C° 0 mm 1 mps 745 mmHg 61%
01:00 +24°C° 0 mm 1 mps 745 mmHg 65%
02:00 +23°C° 0 mm 2 mps 745 mmHg 68%
03:00 +23°C° 0 mm 2 mps 745 mmHg 72%
04:00 +23°C° 0 mm 1 mps 745 mmHg 72%
05:00 +24°C° 0 mm 1 mps 745 mmHg 72%
06:00 +24°C° 0 mm 1 mps 746 mmHg 72%
07:00 +26°C° 0 mm 1 mps 746 mmHg 68%
08:00 +27°C° 0 mm 1 mps 745 mmHg 63%
09:00 +28°C° 0 mm 1 mps 745 mmHg 59%
10:00 +29°C° 0 mm 1 mps 745 mmHg 56%
11:00 +30°C° 0 mm 1 mps 745 mmHg 53%
12:00 +31°C° 0 mm 1 mps 745 mmHg 49%
13:00 +31°C° 0 mm 1 mps 745 mmHg 49%
14:00 +31°C° 0 mm 2 mps 745 mmHg 49%
15:00 +31°C° 0 mm 2 mps 745 mmHg 49%
16:00 +31°C° 0 mm 2 mps 745 mmHg 52%
17:00 +31°C° 0 mm 2 mps 744 mmHg 55%
18:00 +30°C° 0 mm 1 mps 744 mmHg 58%
19:00 +29°C° 0 mm 1 mps 744 mmHg 60%
20:00 +28°C° 0 mm 1 mps 744 mmHg 62%
21:00 +26°C° 0 mm 1 mps 744 mmHg 63%
22:00 +26°C° 0 mm 1 mps 744 mmHg 64%
23:00 +25°C° 0 mm 1 mps 744 mmHg 64%

25 June, Friday

Time Temperature Precipitation Wind Pressure Humidity
00:00 +25°C° 0 mm 1 mps 744 mmHg 65%
01:00 +24°C° 0 mm 1 mps 744 mmHg 67%
02:00 +24°C° 0 mm 1 mps 743 mmHg 68%
03:00 +23°C° 0 mm 1 mps 743 mmHg 70%
04:00 +24°C° 0 mm 1 mps 743 mmHg 70%
05:00 +25°C° 0 mm 1 mps 743 mmHg 70%
06:00 +25°C° 0 mm 1 mps 743 mmHg 70%
07:00 +27°C° 0 mm 1 mps 743 mmHg 66%
08:00 +28°C° 0 mm 2 mps 743 mmHg 63%
09:00 +29°C° 0 mm 2 mps 743 mmHg 59%
10:00 +30°C° 0 mm 2 mps 743 mmHg 57%
11:00 +30°C° 0 mm 2 mps 743 mmHg 55%
12:00 +31°C° 0 mm 1 mps 743 mmHg 53%
13:00 +31°C° 0 mm 2 mps 743 mmHg 52%
14:00 +31°C° 0 mm 2 mps 742 mmHg 51%
15:00 +32°C° 0 mm 2 mps 742 mmHg 49%
16:00 +31°C° 0 mm 2 mps 742 mmHg 52%
17:00 +31°C° 0 mm 2 mps 742 mmHg 54%
18:00 +31°C° 0 mm 1 mps 741 mmHg 57%
19:00 +29°C° 0 mm 2 mps 741 mmHg 59%
20:00 +28°C° 0 mm 2 mps 741 mmHg 62%
21:00 +27°C° 0 mm 2 mps 741 mmHg 64%
22:00 +26°C° 0 mm 2 mps 741 mmHg 65%
23:00 +26°C° 0 mm 2 mps 741 mmHg 66%
Show more

We Need Your Consent

Meteoprog and our Service Providers may store and access personal data such as cookies, device identifiers or other similar technologies on your device and process such data to personalise content and ads, as well as provide social media features and to analyse the traffic.

  • Store and/or access information on your device

    Cookies, device identifiers or other information can be stored or accessed on your device for the purposes indicated above.

  • Personalised ads and content, ad and content measurement, audience insights, and products development

    Ads and content can be personalised based on a profile. More data can be added to better personalise ads and content. Ad and content performance can be measured. Insights about the audience who saw the ads and content can be derived. Such data can be used to develop or improve user’s experience, systems and software.

By clicking ‘I Agree’ you will allow the use of indicated cookies, device identifiers, web beacons or other similar technologies. Your settings can be changed in the browser on your device.

For certain purposes, legitimate interests may be relied on, rather than consent. You can read more about this in our Privacy and Cookie Policy.